Regional Weather Roundup
Issued by NWS

Home | Current Version | Previous Version | Graphics & Text | Print | Product List | Glossary On
Versions: 1 2 3 4 5 6 7 8 9 10 11 12 13 14 15 16 17 18 19 20 21 22 23 24 25 26 27 28 29 30 31 32 33 34 35 36 37 38 39 40 41 42 43 44 45 46 47 48 49 50
000
ASUS45 KABQ 241310
RWRNM
NEW MEXICO REGIONAL WEATHER ROUNDUP
NATIONAL WEATHER SERVICE ALBUQUERQUE NM
600 AM MST FRI NOV 24 2017

NOTE: "FAIR" MEANS FEW OR NO CLOUDS BELOW 12,000 FEET AGL WITH NO
       SIGNIFICANT WEATHER OR OBSTRUCTIONS TO VISION.

      THIS PRODUCT IS RELEASED AS TWO VERSIONS.  ONE VERSION NEAR
      THE TOP OF THE HOUR CONTAINING PRELIMINARY DATA FROM ALBUQUERQUE
      AND OTHER STATIONS.  A FINAL VERSION WITH ADDITIONAL DATA IS
      ISSUED ABOUT 10 MINUTES AFTER THE HOUR.

NMZ501-503-504-510>518-241400-
NORTHWEST PLATEAU/NORTHCENTRAL MOUNTAINS

CITY           SKY/WX    TMP DP  RH WIND       PRES   REMARKS
FARMINGTON     FAIR      29  24  82 NE6       30.13R WCI  23
LOS ALAMOS     FAIR      44  26  50 N3        30.17R
SANTA FE       FAIR      36  28  73 N12       30.12S WCI  28
TAOS           FAIR      28  20  71 CALM      30.18S
ANGEL FIRE     FAIR      34  22  61 SE5       30.16S WCI  30

$$
NMZ402-403-502-505>509-241400-
WESTCENTRAL MOUNTAINS/SOUTHWEST MOUNTAINS

CITY           SKY/WX    TMP DP  RH WIND       PRES   REMARKS
GALLUP         FAIR      23  16  74 CALM      30.20S
GRANTS         FAIR      24  19  80 NW14      30.20F WCI  12
SILVER CITY    FAIR      42  24  50 NW10      30.12F

$$
NMZ407-409-411-412-241400-
SOUTHERN DESERTS

CITY           SKY/WX    TMP DP  RH WIND       PRES   REMARKS
DEMING         FAIR      36  23  59 SW5       30.10S WCI  32
LAS CRUCES     FAIR      42  23  48 W3        30.09F
HOLLOMAN AFB   FAIR      34  23  65 CALM      30.09F
ALAMOGORDO     FAIR      37  25  60 SE6       30.08F WCI  33
T OR C         FAIR      43  21  41 NW5       30.08F

$$
NMZ519>523-241400-
CENTRAL VALLEYS/CENTRAL HIGHLANDS

CITY           SKY/WX    TMP DP  RH WIND       PRES   REMARKS
ALBUQUERQUE    FAIR      39  26  59 CALM      30.11S
DOUBLE EAGLE     N/A     28  21  74 CALM      30.12S
MORIARTY ARPT  FAIR      24  19  81 CALM      30.12S
CLINES CORNERS FAIR      39  25  57 NW17      30.11S WCI  30
BELEN          FAIR      33  25  72 NW3       30.12S
SOCORRO        FAIR      33  26  74 NW6       30.11S WCI  27

$$
NMZ524>526-539-540-241400-
SOUTHCENTRAL MOUNTAINS

CITY           SKY/WX    TMP DP  RH WIND       PRES   REMARKS
RUIDOSO        FAIR      54  21  28 W12       30.14S

$$
NMZ527>531-241400-
NORTHEAST HIGHLANDS/NORTHEAST PLAINS

CITY           SKY/WX    TMP DP  RH WIND       PRES   REMARKS
LAS VEGAS      FAIR      45  13  27 E5        30.03F
RATON          FAIR      35  24  64 NE7       29.98S WCI  29
CLAYTON        FAIR      48  25  40 CALM      29.86R

$$
NMZ532>537-241400-
EASTCENTRAL PLAINS

CITY           SKY/WX    TMP DP  RH WIND       PRES   REMARKS
SANTA ROSA     FAIR      54  24  31 W13       29.94S
TUCUMCARI      FAIR      43  31  62 SW8       29.86F
CANNON AFB     FAIR      43  30  60 W12       29.93F
CLOVIS AIRPORT FAIR      40  29  64 SW10      29.92F WCI  33

$$
NMZ028-029-538-241400-
SOUTHEAST PLAINS

CITY           SKY/WX    TMP DP  RH WIND       PRES   REMARKS
ROSWELL        FAIR      38  27  64 CALM      29.97R
ARTESIA        FAIR      41  27  56 S5        29.97R
CARLSBAD       FAIR      35  31  85 CALM      29.95F
HOBBS          CLEAR     43  30  61 SW6       29.96F


$$



USA.gov is the U.S. government's official web portal to all federal, state and local government web resources and services.